CW2995 Weather Reports


Display with metric or nautical units.
time (UTC)temp
F
wind
direction
speed
MPH
gust
MPH
rain 1hr
in
rain 24hr
in
rain mn
in
humidity
%
barometer
mb
20260508022755 62 242 4.0 8.0 0.00 0.00 0.00 81 1014.0
20260508022301 62 246 5.0 8.0 0.00 0.00 0.00 81 1014.0
20260508021803 62 248 3.0 8.0 0.00 0.00 0.00 81 1014.0
20260508021247 63 282 4.0 8.0 0.00 0.00 0.00 81 1013.9
20260508020751 62 229 5.0 10.0 0.00 0.00 0.00 82 1013.9
20260508020254 62 200 5.0 12.0 0.00 0.00 0.00 82 1013.9
20260508015759 63 197 6.0 12.0 0.00 0.00 0.00 81 1013.8
20260508015305 63 229 2.0 9.0 0.00 0.00 0.00 80 1013.8
20260508014759 63 232 5.0 9.0 0.00 0.00 0.00 79 1013.8
20260508014304 64 262 4.0 9.0 0.00 0.00 0.00 78 1013.6
20260508013749 64 242 4.0 8.0 0.00 0.00 0.00 77 1013.6
20260508013254 64 207 5.0 9.0 0.00 0.00 0.00 77 1013.6
20260508012757 64 263 5.0 9.0 0.00 0.00 0.00 78 1013.7
20260508012300 64 236 6.0 10.0 0.00 0.00 0.00 78 1013.7
20260508011804 64 277 6.0 8.0 0.00 0.00 0.00 77 1013.7
20260508011309 65 231 6.0 11.0 0.00 0.00 0.00 76 1013.8
20260508010753 65 238 4.0 11.0 0.00 0.00 0.00 76 1013.8
20260508010257 65 234 5.0 9.0 0.00 0.00 0.00 76 1013.8
20260508005801 65 200 6.0 10.0 0.00 0.00 0.00 75 1013.7
20260508005307 65 253 5.0 10.0 0.00 0.00 0.00 75 1013.7
20260508004811 65 261 5.0 11.0 0.00 0.00 0.00 75 1013.7
20260508004324 65 267 5.0 11.0 0.00 0.00 0.00 76 1013.8
20260508003806 65 243 6.0 9.0 0.00 0.00 0.00 75 1013.8
20260508003310 66 232 5.0 11.0 0.00 0.00 0.00 74 1013.8
20260508002751 65 268 6.0 12.0 0.00 0.00 0.00 75 1013.8
20260508002313 66 257 4.0 12.0 0.00 0.00 0.00 75 1013.8
20260508001757 65 288 5.0 10.0 0.00 0.00 0.00 75 1013.8
20260508001256 65 279 6.0 9.0 0.00 0.00 0.00 75 1013.8
20260508000800 65 266 4.0 11.0 0.00 0.00 0.00 76 1013.8
20260508000307 65 270 5.0 10.0 0.00 0.00 0.00 75 1013.8
20260507235757 65 279 4.0 11.0 0.00 0.00 0.00 76 1014.0
20260507235301 65 227 7.0 11.0 0.00 0.00 0.00 76 1014.0
20260507234806 65 256 5.0 11.0 0.00 0.00 0.00 76 1014.0
20260507234309 65 205 5.0 12.0 0.00 0.00 0.00 76 1014.0
20260507233747 65 254 5.0 10.0 0.00 0.00 0.00 76 1014.0
20260507233253 65 242 6.0 11.0 0.00 0.00 0.00 75 1014.0
20260507232758 66 293 6.0 11.0 0.00 0.00 0.00 76 1014.0
20260507232307 66 294 4.0 15.0 0.00 0.00 0.00 76 1014.0
20260507231743 66 272 5.0 11.0 0.00 0.00 0.00 76 1014.0
20260507231249 66 227 7.0 13.0 0.00 0.00 0.00 75 1014.0
20260507230817 66 254 7.0 13.0 0.00 0.00 0.00 75 1014.0
20260507230321 67 261 7.0 13.0 0.00 0.00 0.00 73 1014.0
20260507225745 67 237 7.0 13.0 0.00 0.00 0.00 74 1014.0
20260507225311 67 202 7.0 12.0 0.00 0.00 0.00 73 1014.0
20260507224822 66 270 8.0 15.0 0.00 0.00 0.00 74 1014.0
20260507224307 66 223 8.0 15.0 0.00 0.00 0.00 74 1014.0
20260507223752 66 245 8.0 15.0 0.00 0.00 0.00 74 1014.0
20260507223253 67 217 8.0 17.0 0.00 0.00 0.00 73 1014.0
20260507222757 67 261 10.0 17.0 0.00 0.00 0.00 72 1014.3
20260507222301 67 260 8.0 15.0 0.00 0.00 0.00 73 1014.3
20260507221806 66 273 6.0 16.0 0.00 0.00 0.00 74 1014.3
20260507221247 66 279 8.0 15.0 0.00 0.00 0.00 74 1014.5
20260507220752 66 255 8.0 15.0 0.00 0.00 0.00 73 1014.5
20260507220258 66 273 6.0 15.0 0.00 0.00 0.00 74 1014.5
20260507215800 66 281 8.0 14.0 0.00 0.00 0.00 73 1014.6
20260507215245 67 294 6.0 13.0 0.00 0.00 0.00 73 1014.6
20260507214744 67 267 7.0 14.0 0.00 0.00 0.00 73 1014.6
20260507214249 66 216 8.0 15.0 0.00 0.00 0.00 73 1014.7
20260507213755 66 255 8.0 16.0 0.00 0.00 0.00 74 1014.7
20260507213252 66 225 8.0 16.0 0.00 0.00 0.00 73 1014.7
20260507212802 67 237 7.0 14.0 0.00 0.00 0.00 73 1014.9
20260507212307 66 219 8.0 13.0 0.00 0.00 0.00 72 1014.9
20260507211810 67 217 7.0 12.0 0.00 0.00 0.00 72 1014.9
20260507211248 67 205 6.0 12.0 0.00 0.00 0.00 72 1015.0
20260507210750 66 226 6.0 12.0 0.00 0.00 0.00 73 1015.0
20260507210304 66 228 6.0 14.0 0.00 0.00 0.00 73 1015.0
20260507205809 66 232 7.0 14.0 0.00 0.00 0.00 72 1015.1
20260507205315 67 257 5.0 14.0 0.00 0.00 0.00 73 1015.1
20260507204801 66 218 8.0 14.0 0.00 0.00 0.00 73 1015.1
20260507204305 67 245 6.0 13.0 0.00 0.00 0.00 73 1015.1
20260507203752 67 245 8.0 14.0 0.00 0.00 0.00 72 1015.1
20260507203258 66 213 5.0 14.0 0.00 0.00 0.00 73 1015.1
20260507202803 67 282 8.0 13.0 0.00 0.00 0.00 72 1015.4
20260507202309 66 234 8.0 14.0 0.00 0.00 0.00 72 1015.4
20260507201751 66 239 6.0 14.0 0.00 0.00 0.00 73 1015.4
20260507201256 66 253 7.0 12.0 0.00 0.00 0.00 73 1015.5
20260507200800 66 250 7.0 11.0 0.00 0.00 0.00 72 1015.5
20260507200306 67 227 6.0 12.0 0.00 0.00 0.00 73 1015.5
20260507195750 66 249 7.0 13.0 0.00 0.00 0.00 73 1015.6
20260507195300 66 254 7.0 13.0 0.00 0.00 0.00 72 1015.6
20260507194803 66 276 6.0 13.0 0.00 0.00 0.00 73 1015.6
20260507194308 66 241 6.0 13.0 0.00 0.00 0.00 72 1015.6
20260507193813 66 271 7.0 12.0 0.00 0.00 0.00 73 1015.6
20260507193258 67 254 7.0 11.0 0.00 0.00 0.00 71 1015.6
20260507192823 67 270 6.0 10.0 0.00 0.00 0.00 71 1016.0
20260507192246 67 263 6.0 11.0 0.00 0.00 0.00 71 1016.0
20260507191752 67 265 6.0 11.0 0.00 0.00 0.00 72 1016.0
20260507191253 67 236 5.0 9.0 0.00 0.00 0.00 72 1016.1
20260507190800 67 235 5.0 11.0 0.00 0.00 0.00 73 1016.1
20260507190310 66 196 6.0 11.0 0.00 0.00 0.00 73 1016.1
20260507185746 67 244 5.0 9.0 0.00 0.00 0.00 72 1016.1
20260507185251 67 219 6.0 9.0 0.00 0.00 0.00 72 1016.1
20260507184753 67 231 5.0 11.0 0.00 0.00 0.00 72 1016.1
20260507184305 67 244 5.0 11.0 0.00 0.00 0.00 72 1016.1
20260507183806 67 223 5.0 9.0 0.00 0.00 0.00 72 1016.1
20260507183247 66 248 4.0 8.0 0.00 0.00 0.00 72 1016.1
20260507182752 66 228 6.0 9.0 0.00 0.00 0.00 72 1016.1
20260507182258 66 278 5.0 9.0 0.00 0.00 0.00 73 1016.1
20260507181802 66 221 5.0 10.0 0.00 0.00 0.00 72 1016.1
20260507181247 67 236 5.0 9.0 0.00 0.00 0.00 72 1016.1
20260507180749 67 271 5.0 8.0 0.00 0.00 0.00 72 1016.1
20260507180253 66 297 4.0 9.0 0.00 0.00 0.00 74 1016.1
20260507175757 66 207 6.0 9.0 0.00 0.00 0.00 74 1016.1
20260507175302 66 217 4.0 10.0 0.00 0.00 0.00 74 1016.1
20260507174747 65 232 4.0 9.0 0.00 0.00 0.00 74 1016.1
20260507174318 65 247 5.0 9.0 0.00 0.00 0.00 75 1016.2
20260507173823 65 225 5.0 8.0 0.00 0.00 0.00 75 1016.2
20260507173244 65 207 5.0 9.0 0.00 0.00 0.00 75 1016.2
20260507172748 66 233 5.0 8.0 0.00 0.00 0.00 74 1016.3
20260507172253 66 279 4.0 8.0 0.00 0.00 0.00 74 1016.3
20260507171822 65 296 5.0 8.0 0.00 0.00 0.00 74 1016.3
20260507171320 66 225 5.0 9.0 0.00 0.00 0.00 74 1016.2
20260507170744 66 186 4.0 9.0 0.00 0.00 0.00 74 1016.2
20260507170250 66 194 3.0 7.0 0.00 0.00 0.00 74 1016.2
20260507165751 65 254 3.0 8.0 0.00 0.00 0.00 75 1016.2
20260507165259 65 238 4.0 8.0 0.00 0.00 0.00 74 1016.2
20260507164744 65 200 3.0 7.0 0.00 0.00 0.00 74 1016.2
20260507164310 65 245 4.0 6.0 0.00 0.00 0.00 75 1016.3
20260507163753 65 239 3.0 6.0 0.00 0.00 0.00 75 1016.3
20260507163259 65 229 4.0 6.0 0.00 0.00 0.00 75 1016.3
20260507162745 65 260 3.0 7.0 0.00 0.00 0.00 75 1016.3
20260507162248 64 265 3.0 7.0 0.00 0.00 0.00 76 1016.3
20260507161753 64 217 2.0 7.0 0.00 0.00 0.00 76 1016.3
20260507161258 64 219 3.0 7.0 0.00 0.00 0.00 76 1016.4
20260507160802 64 315 3.0 5.0 0.00 0.00 0.00 75 1016.4
20260507160247 64 289 2.0 6.0 0.00 0.00 0.00 77 1016.4
20260507155749 64 311 3.0 6.0 0.00 0.00 0.00 76 1016.3
20260507155254 64 244 3.0 6.0 0.00 0.00 0.00 77 1016.3
20260507154808 64 232 2.0 4.0 0.00 0.00 0.00 77 1016.3
20260507154253 64 258 1.0 5.0 0.00 0.00 0.00 78 1016.3
20260507153757 63 280 1.0 5.0 0.00 0.00 0.00 78 1016.3
20260507153244 63 246 2.0 5.0 0.00 0.00 0.00 79 1016.3
20260507152749 63 213 3.0 5.0 0.00 0.00 0.00 79 1016.6
20260507152250 63 237 3.0 5.0 0.00 0.00 0.00 80 1016.6
20260507151817 62 238 3.0 7.0 0.00 0.00 0.00 80 1016.6
20260507151258 62 200 4.0 7.0 0.00 0.00 0.00 81 1016.4
20260507150804 62 244 2.0 6.0 0.00 0.00 0.00 81 1016.4
20260507150245 62 243 3.0 6.0 0.00 0.00 0.00 83 1016.4
20260507145751 61 245 2.0 6.0 0.00 0.00 0.00 83 1016.3
20260507145257 61 219 4.0 6.0 0.00 0.00 0.00 83 1016.3
20260507144802 61 244 3.0 7.0 0.00 0.00 0.00 83 1016.3
20260507144244 61 234 4.0 7.0 0.00 0.00 0.00 83 1016.2
20260507143746 61 220 3.0 6.0 0.00 0.00 0.00 83 1016.2
20260507143251 61 247 2.0 7.0 0.00 0.00 0.00 84 1016.2
20260507142824 61 236 3.0 7.0 0.00 0.00 0.00 84 1016.1
20260507142308 61 212 3.0 5.0 0.00 0.00 0.00 85 1016.1
20260507141753 60 248 2.0 6.0 0.00 0.00 0.00 85 1016.1
20260507141258 60 252 3.0 6.0 0.00 0.00 0.00 86 1016.0
20260507140800 60 225 3.0 4.0 0.00 0.00 0.00 86 1016.0
20260507140320 59 224 1.0 4.0 0.00 0.00 0.00 87 1016.0
20260507135750 59 250 2.0 4.0 0.00 0.00 0.00 88 1015.8
20260507135252 58 186 1.0 3.0 0.00 0.00 0.00 90 1015.8
20260507134757 57 246 1.0 2.0 0.00 0.00 0.00 90 1015.8
20260507134300 57 246 0.0 2.0 0.00 0.00 0.00 89 1015.6
20260507133801 56 250 0.0 0.0 0.00 0.00 0.00 90 1015.6
20260507133247 0 0.0 0.0 0.00 0.00 0.00 1015.6
20260507132808 0 0.0 0.0 0.00 0.00 0.00 1015.6
20260507132253 0 0.0 0.0 0.00 0.00 0.00 1015.6
20260507131254 0 0.0 0.0 0.00 0.00 0.00 1015.5
20260507130800 0 0.0 0.0 0.00 0.00 0.00 1015.5
20260507130302 0 0.0 0.0 0.00 0.00 0.00 1015.5
20260507125746 0 0.0 0.0 0.00 0.00 0.00 1015.5
20260507125250 0 0.0 0.0 0.00 0.00 0.00 1015.5
20260507124757 0 0.0 0.0 0.00 0.00 0.00 1015.5
20260507123800 0 0.0 0.0 0.00 0.00 0.00 1015.5
20260507123306 0 0.0 0.0 0.00 0.00 0.00 1015.5
20260507122752 0 0.0 0.0 0.00 0.00 0.00 1015.5
20260507122255 0 0.0 0.0 0.00 0.00 0.00 1015.5
20260507121801 0 0.0 0.0 0.00 0.00 0.00 1015.5
20260507121306 0 0.0 0.0 0.00 0.00 0.00 1015.5
20260507120750 0 0.0 0.0 0.00 0.00 0.00 1015.5
20260507120318 0 0.0 0.0 0.00 0.00 0.00 1015.5
20260507115808 0 0.0 0.0 0.00 0.00 0.00 1015.5
20260507115244 0 0.0 0.0 0.00 0.00 0.00 1015.5
20260507114746 0 0.0 0.0 0.00 0.00 0.00 1015.5
20260507114249 0 0.0 0.0 0.00 0.00 0.00 1015.5
20260507113754 0 0.0 0.0 0.00 0.00 0.00 1015.5
20260507113324 0 250 0.0 0.0 0.00 0.00 0.00 1015.5
20260507112754 0 250 0.0 0.0 0.00 0.00 0.00 1015.6
20260507112300 56 250 0.0 0.0 0.00 0.00 0.00 89 1015.6
20260507111802 56 250 0.0 0.0 0.00 0.00 0.00 89 1015.6
20260507111247 56 250 0.0 0.0 0.00 0.00 0.00 89 1015.6
20260507110753 56 250 0.0 0.0 0.00 0.00 0.00 89 1015.6
20260507110258 56 250 0.0 0.0 0.00 0.00 0.00 89 1015.6
20260507105823 57 250 0.0 0.0 0.00 0.00 0.00 89 1015.9
20260507105247 57 250 0.0 0.0 0.00 0.00 0.00 90 1015.9
20260507104752 57 250 0.0 0.0 0.00 0.00 0.00 89 1015.9
20260507104256 57 250 0.0 0.0 0.00 0.00 0.00 88 1016.0
20260507103822 57 250 0.0 0.0 0.00 0.00 0.00 89 1016.0
20260507103247 57 250 0.0 0.0 0.00 0.00 0.00 89 1016.0
20260507102752 57 250 0.0 0.0 0.00 0.00 0.00 89 1016.0
20260507102306 57 250 0.0 0.0 0.00 0.00 0.00 88 1016.0
20260507101808 57 250 0.0 0.0 0.00 0.00 0.00 87 1016.0
20260507101254 57 250 0.0 0.0 0.00 0.00 0.00 88 1016.1
20260507100759 57 250 0.0 0.0 0.00 0.00 0.00 87 1016.1
20260507100300 57 250 0.0 0.0 0.00 0.00 0.00 88 1016.1
20260507095804 57 250 0.0 0.0 0.00 0.00 0.00 88 1016.1
20260507095307 57 250 0.0 0.0 0.00 0.00 0.00 87 1016.1
20260507094745 57 250 0.0 0.0 0.00 0.00 0.00 87 1016.1
20260507094319 57 250 0.0 0.0 0.00 0.00 0.00 87 1016.2
20260507093821 57 250 0.0 0.0 0.00 0.00 0.00 87 1016.2
20260507093259 58 250 0.0 0.0 0.00 0.00 0.00 87 1016.2
20260507092746 58 250 0.0 0.0 0.00 0.00 0.00 86 1016.5
20260507092253 58 250 0.0 0.0 0.00 0.00 0.00 85 1016.5
20260507091757 58 250 0.0 0.0 0.00 0.00 0.00 85 1016.5
20260507091302 58 250 0.0 0.0 0.00 0.00 0.00 85 1016.5
20260507090745 59 250 0.0 0.0 0.00 0.00 0.00 85 1016.5
20260507090310 59 250 0.0 2.0 0.00 0.00 0.00 84 1016.5
20260507085755 59 250 0.0 2.0 0.00 0.00 0.00 84 1016.6
20260507085300 59 289 0.0 2.0 0.00 0.00 0.00 84 1016.6
20260507084746 59 281 1.0 2.0 0.00 0.00 0.00 84 1016.6
20260507084251 59 282 0.0 2.0 0.00 0.00 0.00 83 1016.6
20260507083754 59 296 1.0 2.0 0.00 0.00 0.00 84 1016.6
20260507083301 59 277 1.0 2.0 0.00 0.00 0.00 83 1016.6
20260507082813 59 298 1.0 3.0 0.00 0.00 0.00 83 1016.7
20260507082255 59 266 1.0 4.0 0.00 0.00 0.00 83 1016.7
20260507081801 59 258 1.0 6.0 0.00 0.00 0.00 83 1016.7
20260507081306 59 284 2.0 6.0 0.00 0.00 0.00 83 1016.8
20260507080745 59 281 2.0 4.0 0.00 0.00 0.00 84 1016.8
20260507080247 59 281 3.0 5.0 0.00 0.00 0.00 84 1016.8
20260507075755 59 278 2.0 5.0 0.00 0.00 0.00 84 1016.9
20260507075259 59 257 2.0 8.0 0.00 0.00 0.00 84 1016.9
20260507074744 59 261 2.0 6.0 0.00 0.00 0.00 84 1016.9
20260507074249 60 275 3.0 6.0 0.00 0.00 0.00 84 1017.0
20260507073750 60 240 2.0 6.0 0.00 0.00 0.00 84 1017.0
20260507073316 60 232 3.0 5.0 0.00 0.00 0.00 83 1017.0
20260507072742 60 273 2.0 6.0 0.00 0.00 0.00 83 1017.0
20260507072249 60 252 2.0 6.0 0.00 0.00 0.00 83 1017.0
20260507071750 60 217 4.0 6.0 0.00 0.00 0.00 83 1017.0
20260507071252 60 212 4.0 6.0 0.00 0.00 0.00 83 1017.0
20260507070756 60 241 3.0 6.0 0.00 0.00 0.00 84 1017.0
20260507070257 59 252 1.0 5.0 0.00 0.00 0.00 85 1017.0
20260507065801 59 290 2.0 4.0 0.00 0.00 0.00 86 1017.1
20260507065247 59 285 2.0 5.0 0.00 0.00 0.00 86 1017.1
20260507064748 59 224 2.0 5.0 0.00 0.00 0.00 86 1017.1
20260507064253 59 239 1.0 3.0 0.00 0.00 0.00 86 1017.1
20260507063755 59 250 0.0 3.0 0.00 0.00 0.00 86 1017.1
20260507063306 59 249 2.0 3.0 0.00 0.00 0.00 86 1017.1
20260507062745 59 316 2.0 4.0 0.00 0.00 0.00 86 1017.1
20260507062249 59 257 2.0 4.0 0.00 0.00 0.00 86 1017.1
20260507061759 59 247 2.0 5.0 0.00 0.00 0.00 85 1017.1
20260507061258 59 257 2.0 6.0 0.00 0.00 0.00 85 1017.1
20260507060745 59 273 2.0 6.0 0.00 0.00 0.00 85 1017.1
20260507060305 59 250 3.0 6.0 0.00 0.00 0.00 86 1017.1
20260507055745 59 257 2.0 5.0 0.00 0.00 0.00 85 1017.1
20260507055253 59 280 1.0 5.0 0.00 0.00 0.00 85 1017.1
20260507054758 59 296 2.0 8.0 0.00 0.00 0.00 85 1017.1
20260507054245 59 250 3.0 8.0 0.00 0.00 0.00 85 1017.2
20260507053747 59 249 4.0 7.0 0.00 0.00 0.00 85 1017.2
20260507053309 59 269 2.0 5.0 0.00 0.00 0.00 85 1017.2
20260507052745 59 266 2.0 7.0 0.00 0.00 0.00 85 1017.2
20260507052248 59 257 4.0 7.0 0.00 0.00 0.00 85 1017.2
20260507051754 59 250 3.0 5.0 0.00 0.00 0.00 85 1017.2
20260507051256 60 277 2.0 5.0 0.00 0.00 0.00 84 1017.1
20260507050758 60 277 2.0 6.0 0.00 0.00 0.00 84 1017.1
20260507050300 60 272 4.0 6.0 0.00 0.00 0.00 84 1017.1
20260507045743 60 238 2.0 6.0 0.00 0.00 0.00 84 1017.1
20260507045316 60 274 3.0 7.0 0.00 0.00 0.00 83 1017.1
20260507044758 60 234 3.0 7.0 0.00 0.00 0.00 83 1017.1
20260507044302 60 230 3.0 7.0 0.00 0.00 0.00 82 1017.1
20260507043801 60 232 2.0 7.0 0.00 0.00 0.00 81 1017.1
20260507043305 61 244 3.0 6.0 0.00 0.00 0.00 81 1017.1
20260507042744 61 229 2.0 6.0 0.00 0.00 0.00 81 1017.1
20260507042318 61 215 2.0 7.0 0.00 0.00 0.00 81 1017.1
20260507041804 61 225 3.0 7.0 0.00 0.00 0.00 81 1017.1
20260507041307 61 286 2.0 9.0 0.00 0.00 0.00 82 1016.9
20260507040753 61 225 3.0 9.0 0.00 0.00 0.00 82 1016.9
20260507040316 61 277 4.0 9.0 0.00 0.00 0.00 81 1016.9
20260507035757 61 232 3.0 9.0 0.00 0.00 0.00 81 1016.6
20260507035305 61 241 5.0 9.0 0.00 0.00 0.00 81 1016.6
20260507034745 61 249 3.0 8.0 0.00 0.00 0.00 81 1016.6
20260507034251 61 257 5.0 8.0 0.00 0.00 0.00 80 1016.6
20260507033756 61 258 3.0 8.0 0.00 0.00 0.00 80 1016.6
20260507033259 61 268 6.0 9.0 0.00 0.00 0.00 80 1016.6
20260507032744 61 235 5.0 9.0 0.00 0.00 0.00 81 1016.5
20260507032249 61 256 4.0 7.0 0.00 0.00 0.00 81 1016.5
20260507031751 61 242 4.0 10.0 0.00 0.00 0.00 80 1016.5
20260507031257 61 223 5.0 11.0 0.00 0.00 0.00 80 1016.3
20260507030821 61 277 4.0 14.0 0.00 0.00 0.00 79 1016.3
20260507030246 61 258 7.0 14.0 0.00 0.00 0.00 79 1016.3
20260507025751 61 269 5.0 11.0 0.00 0.00 0.00 79 1016.1
20260507025256 61 265 6.0 9.0 0.00 0.00 0.00 80 1016.1
20260507024829 61 296 4.0 11.0 0.00 0.00 0.00 80 1016.1
20260507024247 62 281 5.0 11.0 0.00 0.00 0.00 79 1016.1
20260507023817 62 266 5.0 13.0 0.00 0.00 0.00 79 1016.1
20260507023301 62 263 5.0 13.0 0.00 0.00 0.00 79 1016.1